User: anonymous   Login
Location: Darlington Observatory
(36.4817°N, 105.8156°W)
Time: 01:45:34
(UTC-06:00)
Language:

MOS 1 - Orbit

View from above orbital plane
View from above orbital plane
View from above satellite
View from above satellite

Ground track
Ground track

The orbit data is extracted from the following two-line orbital elements,

1 17527U 87018A   16179.02848558  .00000233  00000-0  18179-3 0  9997
2 17527  99.2681 181.1407 0008679 183.4308 242.0416 14.02451092499670
Epoch (UTC): 27 June 2016 00:41:01
Eccentricity: 0.0008679
inclination: 99.2681°
perigee height: 879 km
apogee height: 891 km
right ascension of ascending node: 181.1407°
argument of perigee: 183.4308°
revolutions per day: 14.02451092
mean anomaly at epoch: 242.0416°
orbit number at epoch: 49967

The dashed part of the orbit path shows where the satellite is in the earth's shadow,  

DLR